H1 CPF 2 NER 2025 11 20 9 324 01 glonass138 H2 1805301 9138 43508 2025 11 20 0 0 0 2025 11 23 23 45 0 900 1 1 0 0 0 1 H9 10 0 60999 0.00000 0 -23422153.567 -4987894.440 8750230.457 10 0 60999 900.00000 0 -24322361.450 -5116063.536 5675158.214 10 0 60999 1800.00000 0 -24858857.028 -5072135.132 2489655.679 10 0 60999 2700.00000 0 -25004088.920 -4906377.498 -744301.356 10 0 60999 3600.00000 0 -24743380.253 -4673689.697 -3963771.844 10 0 60999 4500.00000 0 -24075596.351 -4431032.279 -7106083.739 10 0 60999 5400.00000 0 -23013260.291 -4234774.119 -10110063.938 10 0 60999 6300.00000 0 -21582110.868 -4138069.215 -12917238.798 10 0 60999 7200.00000 0 -19820121.337 -4188375.989 -15472980.687 10 0 60999 8100.00000 0 -17776020.241 -4425225.466 -17727577.343 10 0 60999 9000.00000 0 -15507376.754 -4878333.883 -19637202.639 10 0 60999 9900.00000 0 -13078331.365 -5566140.436 -21164769.567 10 0 60999 10800.00000 0 -10557067.378 -6494832.516 -22280648.932 10 0 60999 11700.00000 0 -8013129.372 -7657900.007 -22963240.235 10 0 60999 12600.00000 0 -5514700.747 -9036237.587 -23199384.233 10 0 60999 13500.00000 0 -3125953.745 -10598790.896 -22984609.969 10 0 60999 14400.00000 0 -904581.831 -12303719.458 -22323212.321 10 0 60999 15300.00000 0 1100383.703 -14100027.648 -21228159.292 10 0 60999 16200.00000 0 2850383.259 -15929595.422 -19720831.566 10 0 60999 17100.00000 0 4318690.833 -17729523.924 -17830599.846 10 0 60999 18000.00000 0 5491273.307 -19434697.986 -15594248.550 10 0 60999 18900.00000 0 6367113.259 -20980458.538 -13055257.240 10 0 60999 19800.00000 0 6957983.803 -22305273.409 -10262953.792 10 0 60999 20700.00000 0 7287686.787 -23353295.050 -7271555.748 10 0 60999 21600.00000 0 7390788.050 -24076698.462 -4139118.391 10 0 60999 22500.00000 0 7310904.360 -24437701.740 -926409.878 10 0 60999 23400.00000 0 7098615.276 -24410184.927 2304264.806 10 0 60999 24300.00000 0 6809088.754 -23980839.596 5490268.375 10 0 60999 25200.00000 0 6499521.148 -23149801.185 8569841.042 10 0 60999 26100.00000 0 6226499.843 -21930737.649 11483292.321 10 0 60999 27000.00000 0 6043399.847 -20350390.627 14174152.055 10 0 60999 27900.00000 0 5997924.105 -18447587.984 16590258.805 10 0 60999 28800.00000 0 6129891.120 -16271768.531 18684765.002 10 0 60999 29700.00000 0 6469363.118 -13881079.748 20417040.019 10 0 60999 30600.00000 0 7035193.702 -11340126.915 21753454.293 10 0 60999 31500.00000 0 7834056.560 -8717466.334 22668029.858 10 0 60999 32400.00000 0 8859996.772 -6082945.729 23142945.136 10 0 60999 33300.00000 0 10094524.688 -3505001.213 23168884.401 10 0 60999 34200.00000 0 11507249.844 -1048021.992 22745225.089 10 0 60999 35100.00000 0 13057029.984 1230108.726 21880058.953 10 0 60999 36000.00000 0 14693588.777 3280195.277 20590045.961 10 0 60999 36900.00000 0 16359536.142 5063543.414 18900102.845 10 0 60999 37800.00000 0 17992707.994 6553331.436 16842931.228 10 0 60999 38700.00000 0 19528728.484 7735481.657 14458393.304 10 0 60999 39600.00000 0 20903687.917 8608995.946 11792746.114 10 0 60999 40500.00000 0 22056824.101 9185741.450 8897748.382 10 0 60999 41400.00000 0 22933094.147 9489695.713 5829656.642 10 0 60999 42300.00000 0 23485527.745 9555683.255 2648130.027 10 0 60999 43200.00000 0 23677261.794 9427657.448 -584934.811 10 0 60999 44100.00000 0 23483169.366 9156601.010 -3806615.395 10 0 60999 45000.00000 0 22891013.059 8798134.905 -6954197.201 10 0 60999 45900.00000 0 21902072.932 8409938.060 -9966404.384 10 0 60999 46800.00000 0 20531221.575 8049088.490 -12784602.328 10 0 60999 47700.00000 0 18806442.515 7769439.805 -15353947.453 10 0 60999 48600.00000 0 16767811.847 7619145.437 -17624460.946 10 0 60999 49500.00000 0 14465985.829 7638436.460 -19552004.943 10 0 60999 50400.00000 0 11960258.038 7857747.826 -21099141.800 10 0 60999 51300.00000 0 9316267.744 8296272.710 -22235859.839 10 0 60999 52200.00000 0 6603455.558 8961006.304 -22940151.837 10 0 60999 53100.00000 0 3892372.726 9846319.394 -23198435.620 10 0 60999 54000.00000 0 1251956.155 10934079.585 -23005809.380 10 0 60999 54900.00000 0 -1253117.769 12194314.894 -22366137.592 10 0 60999 55800.00000 0 -3564891.158 13586391.605 -21291966.638 10 0 60999 56700.00000 0 -5634293.210 15060656.767 -19804272.472 10 0 60999 57600.00000 0 -7422930.630 16560476.330 -17932045.738 10 0 60999 58500.00000 0 -8904426.927 18024583.408 -15711722.748 10 0 60999 59400.00000 0 -10065256.679 19389638.276 -13186473.579 10 0 60999 60300.00000 0 -10905041.882 20592892.913 -10405361.155 10 0 60999 61200.00000 0 -11436299.909 21574848.508 -7422387.636 10 0 60999 62100.00000 0 -11683655.494 22281794.704 -4295446.584 10 0 60999 63000.00000 0 -11682551.427 22668124.257 -1085201.124 10 0 60999 63900.00000 0 -11477513.495 22698326.178 2146090.169 10 0 60999 64800.00000 0 -11120043.730 22348573.862 5335777.003 10 0 60999 65700.00000 0 -10666231.416 21607841.639 8422027.516 10 0 60999 66600.00000 0 -10174182.956 20478502.824 11345021.548 10 0 60999 67500.00000 0 -9701379.083 18976384.000 14048104.228 10 0 60999 68400.00000 0 -9302070.747 17130272.796 16478877.952 10 0 60999 69300.00000 0 -9024823.247 14980899.123 18590212.073 10 0 60999 70200.00000 0 -8910311.813 12579431.532 20341151.370 10 0 60999 71100.00000 0 -8989461.321 9985550.317 21697706.338 10 0 60999 72000.00000 0 -9282008.424 7265176.416 22633510.530 10 0 60999 72900.00000 0 -9795546.849 4487949.211 23130332.668 10 0 60999 73800.00000 0 -10525096.605 1724556.674 23178433.855 10 0 60999 74700.00000 0 -11453216.123 -955972.576 22776762.888 10 0 60999 75600.00000 0 -12550653.854 -3488904.055 21932985.558 10 0 60999 76500.00000 0 -13777513.415 -5816250.665 20663346.690 10 0 60999 77400.00000 0 -15084884.893 -7888943.208 18992366.705 10 0 60999 78300.00000 0 -16416875.226 -9668628.419 16952377.465 10 0 60999 79200.00000 0 -17712953.611 -11129019.961 14582905.245 10 0 60999 80100.00000 0 -18910514.190 -12256746.127 11929911.719 10 0 60999 81000.00000 0 -19947548.588 -13051658.908 9044906.767 10 0 60999 81900.00000 0 -20765315.707 -13526591.561 5983949.717 10 0 60999 82800.00000 0 -21310895.690 -13706575.085 2806558.232 10 0 60999 83700.00000 0 -21539519.348 -13627546.946 -425453.780 10 0 60999 84600.00000 0 -21416573.542 -13334607.163 -3649186.066 10 0 60999 85500.00000 0 -20919196.437 -12879896.225 -6801885.254 10 0 61000 0.00000 0 -20037394.023 -12320185.734 -9822176.043 10 0 61000 900.00000 0 -18774628.993 -11714284.599 -12651266.794 10 0 61000 1800.00000 0 -17147857.401 -11120372.636 -15234100.869 10 0 61000 2700.00000 0 -15187009.274 -10593374.621 -17520435.757 10 0 61000 3600.00000 0 -12933935.658 -10182487.690 -19465824.273 10 0 61000 4500.00000 0 -10440865.764 -9928967.153 -21032480.029 10 0 61000 5400.00000 0 -7768438.898 -9864264.780 -22190010.133 10 0 61000 6300.00000 0 -4983393.581 -10008598.345 -22916001.246 10 0 61000 7200.00000 0 -2156010.390 -10370012.618 -23196448.187 10 0 61000 8100.00000 0 642584.946 -10943971.046 -23026017.577 10 0 61000 9000.00000 0 3343146.251 -11713494.824 -22408142.191 10 0 61000 9900.00000 0 5880946.607 -12649843.001 -21354944.994 10 0 61000 10800.00000 0 8198224.157 -13713704.508 -19886995.006 10 0 61000 11700.00000 0 10246333.538 -14856851.601 -18032900.275 10 0 61000 12600.00000 0 11987514.786 -16024184.959 -15828746.199 10 0 61000 13500.00000 0 13396207.767 -17156084.306 -13317390.339 10 0 61000 14400.00000 0 14459859.112 -18190965.780 -10547627.455 10 0 61000 15300.00000 0 15179189.761 -19067938.576 -7573240.997 10 0 61000 16200.00000 0 15567913.792 -19729449.345 -4451959.409 10 0 61000 17100.00000 0 15651921.938 -20123803.293 -1244337.393 10 0 61000 18000.00000 0 15467965.539 -20207456.136 1987416.181 10 0 61000 18900.00000 0 15061897.424 -19946980.639 5180641.129 10 0 61000 19800.00000 0 14486544.581 -19320625.088 8273436.357 10 0 61000 20700.00000 0 13799302.726 -18319398.123 11205854.542 10 0 61000 21600.00000 0 13059554.325 -16947634.059 13921058.216 10 0 61000 22500.00000 0 12326018.752 -15223014.523 16366415.302 10 0 61000 23400.00000 0 11654145.952 -13176044.718 18494513.332 10 0 61000 24300.00000 0 11093662.958 -10849005.263 20264073.317 10 0 61000 25200.00000 0 10686376.094 -8294422.107 21640746.212 10 0 61000 26100.00000 0 10464320.988 -5573116.937 22597777.086 10 0 61000 27000.00000 0 10448338.032 -2751917.681 23116524.605 10 0 61000 27900.00000 0 10647133.249 98877.298 23186826.009 10 0 61000 28800.00000 0 11056864.467 2908177.478 22807200.484 10 0 61000 29700.00000 0 11661270.893 5606811.144 21984886.636 10 0 61000 30600.00000 0 12432341.677 8130157.692 20735712.736 10 0 61000 31500.00000 0 13331496.514 10420592.837 19083801.308 10 0 61000 32400.00000 0 14311229.886 12429645.702 17061112.727 10 0 61000 33300.00000 0 15317150.926 14119778.405 14706835.493 10 0 61000 34200.00000 0 16290333.873 15465714.016 12066633.924 10 0 61000 35100.00000 0 17169880.636 16455257.454 9191766.932 10 0 61000 36000.00000 0 17895587.456 17089574.894 6138094.384 10 0 61000 36900.00000 0 18410602.742 17382919.975 2964990.085 10 0 61000 37800.00000 0 18663962.995 17361818.496 -265817.275 10 0 61000 38700.00000 0 18612898.506 17063746.337 -3491452.182 10 0 61000 39600.00000 0 18224809.948 16535357.019 -6649124.918 10 0 61000 40500.00000 0 17478830.886 15830334.643 -9677363.649 10 0 61000 41400.00000 0 16366908.705 15006964.054 -12517220.863 10 0 61000 42300.00000 0 14894357.103 14125522.134 -15113429.446 10 0 61000 43200.00000 0 13079855.788 13245601.712 -17415484.986 10 0 61000 44100.00000 0 10954896.642 12423482.251 -19378632.542 10 0 61000 45000.00000 0 8562699.127 11709659.184 -20964738.328 10 0 61000 45900.00000 0 5956640.160 11146636.715 -22143029.380 10 0 61000 46800.00000 0 3198264.007 10767077.301 -22890687.178 10 0 61000 47700.00000 0 354955.306 10592385.609 -23193284.260 10 0 61000 48600.00000 0 -2502627.877 10631786.079 -23045056.127 10 0 61000 49500.00000 0 -5303254.321 10881932.165 -22449003.986 10 0 61000 50400.00000 0 -7977841.332 11327062.875 -21416827.135 10 0 61000 51300.00000 0 -10462085.358 11939699.108 -19968686.997 10 0 61000 52200.00000 0 -12698893.155 12681849.721 -18132807.930 10 0 61000 53100.00000 0 -14640513.538 13506675.925 -15944922.922 10 0 61000 54000.00000 0 -16250282.434 14360543.451 -13447575.178 10 0 61000 54900.00000 0 -17503910.083 15185375.838 -10689289.171 10 0 61000 55800.00000 0 -18390258.315 15921209.568 -7723627.319 10 0 61000 56700.00000 0 -18911577.114 16508843.430 -4608150.475 10 0 61000 57600.00000 0 -19083192.127 16892470.582 -1403302.367 10 0 61000 58500.00000 0 -18932657.691 17022182.488 1828760.460 10 0 61000 59400.00000 0 -18498412.137 16856239.356 5025370.582 10 0 61000 60300.00000 0 -17827992.826 16363011.480 8124560.345 10 0 61000 61200.00000 0 -16975886.621 15522509.662 11066257.925 10 0 61000 62100.00000 0 -16001106.553 14327440.093 13793445.894 10 0 61000 63000.00000 0 -14964596.636 12783738.867 16253260.255 10 0 61000 63900.00000 0 -13926573.802 10910562.986 18398009.141 10 0 61000 64800.00000 0 -12943918.261 8739737.185 20186092.027 10 0 61000 65700.00000 0 -12067721.430 6314678.414 21582802.319 10 0 61000 66600.00000 0 -11341093.912 3688841.381 22560998.297 10 0 61000 67500.00000 0 -10797325.068 923748.236 23101629.923 10 0 61000 68400.00000 0 -10458471.151 -1913317.382 23194111.553 10 0 61000 69300.00000 0 -10334431.224 -4751857.778 22836533.321 10 0 61000 70200.00000 0 -10422549.871 -7520845.913 22035706.791 10 0 61000 71100.00000 0 -10707763.903 -10151437.310 20807043.353 10 0 61000 72000.00000 0 -11163287.620 -12579597.555 19174266.854 10 0 61000 72900.00000 0 -11751808.711 -14748536.959 17168964.944 10 0 61000 73800.00000 0 -12427145.338 -16610851.508 14829986.673 10 0 61000 74700.00000 0 -13136295.383 -18130280.964 12202696.917 10 0 61000 75600.00000 0 -13821791.949 -19283010.671 9338101.198 10 0 61000 76500.00000 0 -14424265.868 -20058462.390 6291857.187 10 0 61000 77400.00000 0 -14885106.678 -20459540.795 3123191.876 10 0 61000 78300.00000 0 -15149108.882 -20502325.202 -106254.411 10 0 61000 79200.00000 0 -15166990.501 -20215219.595 -3333634.185 10 0 61000 80100.00000 0 -14897675.989 -19637597.124 -6496124.748 10 0 61000 81000.00000 0 -14310245.418 -18817996.901 -9532160.898 10 0 61000 81900.00000 0 -13385465.976 -17811950.103 -12382643.196 10 0 61000 82800.00000 0 -12116839.599 -16679528.217 -14992097.094 10 0 61000 83700.00000 0 -10511121.276 -15482718.100 -17309759.393 10 0 61000 84600.00000 0 -8588285.151 -14282735.684 -19290570.209 10 0 61000 85500.00000 0 -6380939.110 -13137392.508 -20896050.750 10 0 61001 0.00000 0 -3933212.128 -12098626.763 -22095049.766 10 0 61001 900.00000 0 -1299159.310 -11210302.469 -22864345.060 10 0 61001 1800.00000 0 1459245.599 -10506370.577 -23189087.420 10 0 61001 2700.00000 0 4274450.957 -10009466.926 -23063081.281 10 0 61001 3600.00000 0 7075900.762 -9730006.496 -22488895.763 10 0 61001 4500.00000 0 9792735.433 -9665810.355 -21477805.465 10 0 61001 5400.00000 0 12356507.841 -9802279.865 -20049562.724 10 0 61001 6300.00000 0 14703802.397 -10113109.600 -18232006.308 10 0 61001 7200.00000 0 16778649.162 -10561507.920 -16060514.516 10 0 61001 8100.00000 0 18534633.675 -11101872.868 -13577313.536 10 0 61001 9000.00000 0 19936615.895 -11681852.141 -10830654.561 10 0 61001 9900.00000 0 20961987.962 -12244699.838 -7873875.650 10 0 61001 10800.00000 0 21601419.716 -12731830.329 -4764366.502 10 0 61001 11700.00000 0 21859062.213 -13085461.452 -1562456.130 10 0 61001 12600.00000 0 21752202.065 -13251235.472 1669755.026 10 0 61001 13500.00000 0 21310382.276 -13180707.323 4869595.991 10 0 61001 14400.00000 0 20574027.414 -12833595.174 7975036.033 10 0 61001 15300.00000 0 19592631.560 -12179698.418 10925881.969 10 0 61001 16200.00000 0 18422585.524 -11200402.080 13664939.122 10 0 61001 17100.00000 0 17124734.730 -9889703.926 16139113.811 10 0 61001 18000.00000 0 15761770.118 -8254720.466 18300436.500 10 0 61001 18900.00000 0 14395561.210 -6315649.625 20106986.359 10 0 61001 19800.00000 0 13084542.621 -4105190.410 21523699.990 10 0 61001 20700.00000 0 11881262.956 -1667442.300 22523049.172 10 0 61001 21600.00000 0 10830198.151 943671.472 23085575.033 10 0 61001 22500.00000 0 9965920.295 3666392.897 23200268.521 10 0 61001 23400.00000 0 9311698.248 6433449.538 22864789.835 10 0 61001 24300.00000 0 8878588.510 9174611.570 22085522.283 10 0 61001 25200.00000 0 8665054.507 11819380.828 20877458.884 10 0 61001 26100.00000 0 8657130.580 14299701.344 19263923.062 10 0 61001 27000.00000 0 8829124.237 16552579.620 17276127.783 10 0 61001 27900.00000 0 9144827.724 18522506.086 14952580.496 10 0 61001 28800.00000 0 9559188.415 20163576.977 12338344.340 10 0 61001 29700.00000 0 10020368.017 21441227.933 9484168.986 10 0 61001 30600.00000 0 10472103.763 22333506.478 6445507.328 10 0 61001 31500.00000 0 10856271.622 22831829.635 3281436.856 10 0 61001 32400.00000 0 11115542.503 22941194.510 53506.782 10 0 61001 33300.00000 0 11196018.070 22679832.776 -3175466.177 10 0 61001 34200.00000 0 11049733.286 22078323.625 -6342629.025 10 0 61001 35100.00000 0 10636918.264 21178202.900 -9386325.717 10 0 61001 36000.00000 0 9927922.105 20030127.651 -12247307.209 10 0 61001 36900.00000 0 8904715.816 18691674.383 -14869893.577 10 0 61001 37800.00000 0 7561909.423 17224864.811 -17203064.629 10 0 61001 38700.00000 0 5907239.135 15693524.428 -19201457.055 10 0 61001 39600.00000 0 3961503.110 14160586.033 -20826248.327 10 0 61001 40500.00000 0 1757947.800 12685452.343 -22045910.111 10 0 61001 41400.00000 0 -658869.907 11321528.884 -22836816.894 10 0 61001 42300.00000 0 -3234697.433 10114030.712 -23183698.518 10 0 61001 43200.00000 0 -5907610.939 9098154.508 -23079928.610 10 0 61001 44100.00000 0 -8610365.248 8297691.830 -22527644.129 10 0 61001 45000.00000 0 -11272971.635 7724140.481 -21537694.510 10 0 61001 45900.00000 0 -13825396.565 7376349.845 -20129422.127 10 0 61001 46800.00000 0 -16200269.675 7240713.514 -18330278.862 10 0 61001 47700.00000 0 -18335488.985 7291899.664 -16175286.647 10 0 61001 48600.00000 0 -20176615.778 7494087.066 -13706352.676 10 0 61001 49500.00000 0 -21678960.406 7802653.592 -10971452.639 10 0 61001 50400.00000 0 -22809273.117 8166245.171 -8023697.866 10 0 61001 51300.00000 0 -23546970.541 8529137.342 -4920304.435 10 0 61001 52200.00000 0 -23884847.717 8833789.351 -1721484.132 10 0 61001 53100.00000 0 -23829247.044 9023482.785 1510721.246 10 0 61001 54000.00000 0 -23399678.087 9044933.255 4713639.742 10 0 61001 54900.00000 0 -22627905.069 8850764.856 7825180.117 10 0 61001 55800.00000 0 -21556540.974 8401742.946 10785030.406 10 0 61001 56700.00000 0 -20237207.655 7668670.960 13535821.229 10 0 61001 57600.00000 0 -18728339.233 6633871.073 16024231.688 10 0 61001 58500.00000 0 -17092720.796 5292185.861 18202016.897 10 0 61001 59400.00000 0 -15394865.119 3651458.087 20026937.831 10 0 61001 60300.00000 0 -13698336.701 1732467.355 21463576.111 10 0 61001 61200.00000 0 -12063134.368 -431675.160 22484018.516 10 0 61001 62100.00000 0 -10543241.149 -2796650.270 23068398.461 10 0 61001 63000.00000 0 -9184443.087 -5308527.675 23205284.223 10 0 61001 63900.00000 0 -8022507.502 -7905771.569 22891906.422 10 0 61001 64800.00000 0 -7081796.405 -10521573.376 22134220.071 10 0 61001 65700.00000 0 -6374372.746 -13086416.354 20946799.402 10 0 61001 66600.00000 0 -5899636.862 -15530766.749 19352566.636 10 0 61001 67500.00000 0 -5644508.460 -17787780.658 17382358.916 10 0 61001 68400.00000 0 -5584146.728 -19795914.504 15074340.614 10 0 61001 69300.00000 0 -5683178.568 -21501330.514 12473271.323 10 0 61001 70200.00000 0 -5897383.404 -22859996.638 9629642.790 10 0 61001 71100.00000 0 -6175763.563 -23839392.645 6598700.813 10 0 61001 72000.00000 0 -6462912.516 -24419750.323 3439370.862 10 0 61001 72900.00000 0 -6701580.269 -24594775.087 213108.350 10 0 61001 73800.00000 0 -6835326.444 -24371818.140 -3017303.598 10 0 61001 74700.00000 0 -6811147.480 -23771491.578 -6188984.636 10 0 61001 75600.00000 0 -6581965.248 -22826742.606 -9240190.917 10 0 61001 76500.00000 0 -6108870.125 -21581426.121 -12111526.890 10 0 61001 77400.00000 0 -5363022.027 -20088436.363 -14747110.350 10 0 61001 78300.00000 0 -4327127.542 -18407477.101 -17095667.112 10 0 61001 79200.00000 0 -2996429.474 -16602565.103 -19111533.253 10 0 61001 80100.00000 0 -1379166.005 -14739372.773 -20755545.004 10 0 61001 81000.00000 0 503520.680 -12882522.298 -21995798.971 10 0 61001 81900.00000 0 2618223.114 -11092945.287 -22808268.172 10 0 61001 82800.00000 0 4920428.219 -9425418.670 -23177262.495 10 0 61001 83700.00000 0 7356149.764 -7926379.703 -23095725.356 10 0 61001 84600.00000 0 9863965.648 -6632110.719 -22565361.649 10 0 61001 85500.00000 0 12377375.241 -5567368.458 -21596595.281 10 0 61002 0.00000 0 14827378.632 -4744513.876 -20208357.995 10 0 61002 900.00000 0 17145172.039 -4163176.791 -18427713.309 10 0 61002 1800.00000 0 19264844.339 -3810468.713 -16289325.248 10 0 61002 2700.00000 0 21125967.374 -3661731.703 -13834779.923 10 0 61002 3600.00000 0 22675969.541 -3681791.422 -11111775.001 10 0 61002 4500.00000 0 23872195.766 -3826659.805 -8173192.141 10 0 61002 5400.00000 0 24683568.571 -4045614.676 -5076070.486 10 0 61002 6300.00000 0 25091781.726 -4283567.881 -1880500.993 10 0 61002 7200.00000 0 25091977.464 -4483621.459 1351536.954 10 0 61002 8100.00000 0 24692879.738 -4589703.681 4557374.210 10 0 61002 9000.00000 0 23916378.689 -4549173.508 7674862.713 10 0 61002 9900.00000 0 22796584.234 -4315283.440 10643575.160 10 0 61002 10800.00000 0 21378388.830 -3849396.763 13405970.570 10 0 61002 11700.00000 0 19715599.662 -3122865.540 15908503.513 10 0 61002 12600.00000 0 17868718.371 -2118489.881 18102655.999 10 0 61002 13500.00000 0 15902460.787 -831496.539 19945872.581 10 0 61002 14400.00000 0 13883119.775 730005.207 21402381.231 10 0 61002 15300.00000 0 11875880.611 2545110.698 22443884.611 10 0 61002 16200.00000 0 9942200.087 4580747.963 23050108.873 10 0 61002 17100.00000 0 8137357.808 6792822.239 23209199.645 10 0 61002 18000.00000 0 6508281.015 9127831.085 22917957.568 10 0 61002 18900.00000 0 5091732.966 11524884.703 22181908.546 10 0 61002 19800.00000 0 3912939.918 13918049.153 21015206.812 10 0 61002 20700.00000 0 2984713.749 16238916.422 19440371.804 10 0 61002 21600.00000 0 2307106.705 18419295.544 17487862.928 10 0 61002 22500.00000 0 1867612.714 20393913.415 15195499.285 10 0 61002 23400.00000 0 1641906.838 22103012.941 12607734.494 10 0 61002 24300.00000 0 1595091.787 23494739.884 9774799.735 10 0 61002 25200.00000 0 1683398.916 24527218.090 6751730.912 10 0 61002 26100.00000 0 1856271.613 25170225.399 3597298.550 10 0 61002 27000.00000 0 2058742.514 25406399.029 372861.264 10 0 61002 27900.00000 0 2234003.113 25231918.962 -2858834.427 10 0 61002 28800.00000 0 2326055.846 24656639.862 -6034883.769 10 0 61002 29700.00000 0 2282334.939 23703665.524 -9093457.913 10 0 61002 30600.00000 0 2056183.506 22408383.642 -11975017.381 10 0 61002 31500.00000 0 1609080.450 20817001.719 -14623480.002 10 0 61002 32400.00000 0 912521.450 18984646.208 -16987319.611 10 0 61002 33300.00000 0 -50526.794 16973105.485 -19020573.376 10 0 61002 34200.00000 0 -1284661.572 14848312.227 -20683737.716 10 0 61002 35100.00000 0 -2781609.984 12677671.514 -21944535.307 10 0 61002 36000.00000 0 -4520344.481 10527347.120 -22778538.566 10 0 61002 36900.00000 0 -6467743.740 8459619.783 -23169637.995 10 0 61002 37800.00000 0 -8579771.458 6530427.702 -23110347.056 10 0 61002 38700.00000 0 -10803123.987 4787191.381 -22601938.467 10 0 61002 39600.00000 0 -13077278.082 3267012.649 -21654410.094 10 0 61002 40500.00000 0 -15336853.510 1995321.612 -20286281.826 10 0 61002 41400.00000 0 -17514192.192 985026.376 -18524227.962 10 0 61002 42300.00000 0 -19542046.634 236199.198 -16402552.663 10 0 61002 43200.00000 0 -21356265.938 -263689.700 -13962518.894 10 0 61002 44100.00000 0 -22898367.846 -539002.386 -11251543.988 10 0 61002 45000.00000 0 -24117890.003 -624661.489 -8322277.455 10 0 61002 45900.00000 0 -24974422.857 -564431.454 -5231578.908 10 0 61002 46800.00000 0 -25439239.860 -408826.269 -2039415.820 10 0 61002 47700.00000 0 -25496457.431 -212732.719 1192297.541 10 0 61002 48600.00000 0 -25143676.704 -32849.992 4400897.577 10 0 61002 49500.00000 0 -24392080.727 74945.965 7524182.151 10 0 61002 50400.00000 0 -23265983.403 58201.927 10501611.359 10 0 61002 51300.00000 0 -21801849.304 -129659.074 13275475.297 10 0 61002 52200.00000 0 -20046825.345 -527133.732 15792006.571 10 0 61002 53100.00000 0 -18056845.562 -1162777.003 18002416.446 10 0 61002 54000.00000 0 -15894387.739 -2053761.943 19863835.151 10 0 61002 54900.00000 0 -13625974.878 -3204921.993 21340138.749 10 0 61002 55800.00000 0 -11319524.942 -4608316.859 22402647.132 10 0 61002 56700.00000 0 -9041658.373 -6243341.428 23030680.110 10 0 61002 57600.00000 0 -6855074.530 -8077374.730 23211961.165 10 0 61002 58500.00000 0 -4816105.339 -10066943.552 22942861.039 10 0 61002 59400.00000 0 -2972547.127 -12159353.998 22228476.244 10 0 61002 60300.00000 0 -1361860.221 -14294724.780 21082540.382 10 0 61002 61200.00000 0 -9810.824 -16408339.049 19527169.154 10 0 61002 62100.00000 0 1070388.526 -18433218.064 17592442.987 10 0 61002 63000.00000 0 1878404.216 -20302810.236 15315834.171 10 0 61002 63900.00000 0 2426559.028 -21953683.682 12741488.544 10 0 61002 64800.00000 0 2739071.289 -23328109.763 9919374.667 10 0 61002 65700.00000 0 2850787.860 -24376428.950 6904316.278 10 0 61002 66600.00000 0 2805464.685 -25059099.066 3754926.503 10 0 61002 67500.00000 0 2653667.993 -25348338.897 532464.574 10 0 61002 68400.00000 0 2450385.694 -25229296.986 -2700362.289 10 0 61002 69300.00000 0 2252451.078 -24700695.413 -5880627.686 10 0 61002 70200.00000 0 2115889.216 -23774920.622 -8946420.584 10 0 61002 71100.00000 0 2093299.890 -22477556.907 -11838060.415 10 0 61002 72000.00000 0 2231389.391 -20846381.988 -14499267.847 10 0 61002 72900.00000 0 2568757.126 -18929867.026 -16878267.454 10 0 61002 73800.00000 0 3134031.953 -16785244.484 -18928800.050 10 0 61002 74700.00000 0 3944438.102 -14476225.502 -20611024.528 10 0 61002 75600.00000 0 5004852.025 -12070463.048 -21892291.592 10 0 61002 76500.00000 0 6307390.534 -9636867.506 -22747774.601 10 0 61002 77400.00000 0 7831547.958 -7242887.231 -23160945.787 10 0 61002 78300.00000 0 9544876.767 -4951867.531 -23123889.322 10 0 61002 79200.00000 0 11404183.281 -2820597.793 -22637445.988 10 0 61002 80100.00000 0 13357188.432 -897148.200 -21711187.444 10 0 61002 81000.00000 0 15344584.207 780915.084 -20363221.324 10 0 61002 81900.00000 0 17302399.904 2187863.398 -18619831.545 10 0 61002 82800.00000 0 19164579.501 3310633.942 -16514961.221 10 0 61002 83700.00000 0 20865662.683 4149120.406 -14089548.492 10 0 61002 84600.00000 0 22343457.837 4715915.702 -11390728.274 10 0 61002 85500.00000 0 23541595.618 5035519.511 -8470915.439 99